CAPE
40 43 43 26 0 14 137 325 505 694 671 599 617 570 513 716 975 1040 1149 1286 1140 1001 916 904 794 750 730 821 902 736 537 456 380 231 199 561 260 249 162 117 68 60 72
137 89 93 79 61 88 156 257 351 498 679 683 832 737 361 556 743 931 1167 1294 974 958 759 852 865 795 880 786 761 935 535 515 476 377 193 410 306 195 153 75 77 69 72
222 174 108 77 102 145 205 291 400 506 513 623 913 880 206 296 499 782 1048 1064 934 973 790 633 421 701 1086 867 820 615 791 635 360 483 226 598 517 213 118 48 37 51 48
317 303 253 210 85 86 231 357 428 500 554 620 885 838 590 411 472 918 1009 972 958 916 774 619 228 668 1038 764 809 902 764 748 574 532 398 671 391 185 143 127 22 34 35
477 432 384 346 286 271 181 342 602 496 556 560 690 828 709 620 570 808 915 1097 991 905 875 838 882 896 669 716 811 880 704 637 466 433 401 400 382 206 210 107 46 21 18
607 460 460 518 523 348 423 591 633 670 661 583 656 666 774 658 625 605 714 999 1013 951 947 870 762 792 736 636 579 634 644 544 481 347 310 311 291 244 162 179 55 33 26
781 686 666 664 652 602 617 592 518 620 342 265 391 446 566 566 620 725 709 950 1040 1021 931 828 786 742 613 489 341 318 425 518 457 316 279 281 275 294 296 177 58 51 47
1310 1212 1142 1113 997 814 824 792 814 698 299 51 141 106 172 291 421 680 640 847 968 914 948 948 655 526 399 272 211 242 238 227 264 266 166 61 67 80 122 116 82 50 71
1123 1100 1060 1021 982 926 880 828 740 636 569 414 290 70 39 139 253 614 811 918 943 858 853 847 886 739 372 345 246 244 163 118 108 110 102 87 63 52 65 64 68 105 112
731 756 741 697 686 693 680 741 743 688 676 629 573 341 3 108 105 392 752 849 805 707 649 720 679 703 450 367 277 197 212 147 36 15 6 0 6 16 31 47 91 106 100
0 0 16 25 379 173 193 446 589 768 723 605 506 310 55 44 60 312 360 553 592 475 578 553 648 562 421 279 181 142 167 57 13 7 16 18 24 28 29 28 28 52 63
0 0 0 1 4 106 82 381 673 539 661 680 654 553 163 101 117 157 211 234 312 291 289 375 256 255 242 195 195 203 154 43 33 34 43 38 36 9 4 13 29 42 23
0 0 0 2 0 162 125 217 270 368 474 611 614 645 434 193 73 105 150 167 126 115 154 220 137 203 177 144 172 153 108 63 36 50 44 11 16 0 0 1 4 10 8
0 0 0 0 3 3 14 66 79 241 235 242 467 376 404 289 173 166 158 81 50 117 179 142 123 99 113 97 103 70 57 25 2 2 1 0 5 3 0 0 0 0 0
2 0 0 0 1 3 36 23 35 40 20 135 325 220 335 273 148 128 121 119 33 89 115 143 126 98 83 89 78 46 3 2 8 11 35 32 42 22 0 0 0 0 0
0 0 0 0 1 1 12 50 32 11 7 9 5 1 6 29 17 15 31 17 47 91 75 81 52 55 46 46 5 14 19 16 43 51 44 17 0 0 0 0 0 0 0
0 0 0 0 0 1 12 13 3 12 1 8 22 2 86 160 11 35 7 21 43 42 41 59 64 43 8 9 6 51 27 34 33 15 5 0 0 0 0 0 0 0 0
33 22 6 9 0 5 10 3 2 19 23 29 74 90 104 21 9 3 4 2 8 17 6 7 13 44 63 71 55 36 17 15 0 0 0 0 0 0 0 0 0 0 0
53 2 5 6 24 25 14 31 12 0 9 25 26 14 8 3 2 6 13 14 1 14 22 22 20 27 29 21 11 0 0 0 0 0 0 0 0 0 0 0 0 0 0
65 45 0 0 0 0 7 14 21 6 0 2 0 38 1 0 0 7 11 4 1 0 2 0 0 0 0 0 0 0 0 0 0 0 0 0 0 0 0 0 0 0 0
63 18 1 0 0 0 0 0 0 0 0 0 0 0 0 0 0 0 0 0 0 0 0 0 0 0 0 0 0 0 0 0 0 0 0 0 0 0 0 0 0 0 0
39 37 42 25 10 2 0 0 0 0 0 0 0 0 0 0 0 0 0 0 0 0 0 0 0 0 0 0 0 0 0 0 0 0 0 0 0 0 0 0 0 0 0
62 47 7 0 9 7 7 4 0 0 0 0 0 0 0 0 0 0 0 0 0 0 0 0 0 0 0 0 0 0 0 0 0 0 0 0 0 0 0 0 0 0 0
83 13 19 5 0 0 0 9 0 0 0 0 0 0 0 0 0 0 0 0 0 0 0 0 0 0 0 0 0 0 0 0 0 0 0 0 0 0 0 0 0 0 0
71 30 48 95 0 0 0 0 0 0 0 0 0 0 0 0 0 0 0 0 0 0 0 0 0 0 0 0 0 0 0 0 0 0 0 0 0 0 0 0 0 0 0
73 62 199 136 0 0 0 0 0 0 0 0 0 0 0 0 0 0 0 0 0 0 0 0 0 0 0 0 0 0 0 0 0 0 0 0 0 0 0 3 8 0 0
CIN
-17 -28 -52 -175 0 -175 -232 -188 -94 -44 -36 -41 -32 -29 -59 -139 -48 -93 -28 -16 -21 -16 -37 -18 -88 -97 -25 -104 -96 -113 -35 -26 -96 -84 -108 -52 -49 -58 -40 -36 -23 -12 -5
-16 -34 -20 -9 -333 -282 -243 -220 -196 -106 -65 -41 -23 -23 -24 -57 -40 -102 -80 -76 -102 -21 -27 -81 -89 -75 -82 -36 -106 -90 -26 -7 -108 -98 -107 -60 -54 -50 -47 -50 -32 -12 0
-24 -25 -21 -6 -8 -270 -236 -201 -174 -154 -92 -77 -29 -20 -39 -57 -75 -121 -93 -16 -21 -23 -16 -29 -40 -106 -76 -42 -94 -100 -95 -108 -17 -94 -18 -45 -33 -40 -45 -54 -55 -22 -4
-21 -18 -12 -8 -21 -35 -240 -205 -169 -159 -133 -70 -42 -20 -21 -32 -143 -100 -86 -30 -30 -18 -20 -22 -66 -118 -96 -106 -96 -88 -92 -81 -23 -75 -46 -34 -40 -37 -39 -29 -33 -27 -11
-15 -11 -10 -13 -5 -2 -20 -207 -127 -145 -139 -122 -46 -25 -15 -20 -113 -99 -91 -88 -20 -25 -26 -18 -103 -77 -38 -55 -100 -93 -90 -74 -31 -34 -11 -42 -31 -38 -28 -36 -25 -17 -20
-16 -14 -20 -27 -16 -15 -125 -137 -108 -102 -75 -97 -53 -50 -16 -13 -15 -53 -58 -81 -22 -65 -20 -78 -37 -24 -24 -29 -36 -45 -28 -29 -25 -31 -41 -33 -48 -39 -13 -13 -30 -20 -26
-21 -21 -29 -35 -39 -122 -23 -70 -81 -93 -160 -115 -43 -53 -76 -50 -26 -14 -48 -25 -61 -18 -26 -51 -29 -17 -32 -36 -48 -58 -52 -31 -27 -29 -60 -28 -19 -12 -12 -15 -26 -10 -8
-78 -74 -73 -52 -53 -46 -71 -85 -71 -71 -60 -288 -175 -130 -92 -108 -45 -44 -16 -12 -10 -13 -14 -7 -25 -24 -35 -53 -62 -52 -53 -51 -43 -29 -28 -39 -61 -46 -28 -17 -7 -8 -2
-98 -77 -66 -46 -42 -37 -19 -31 -72 -64 -53 -60 -46 -62 -97 -65 -45 -37 -18 -10 -5 -8 -15 -12 -7 -4 -2 -6 -45 -44 -44 -40 -31 -25 -24 -17 -23 -49 -47 -20 -15 -1 0
-102 -78 -61 -56 -36 -27 -20 -7 -22 -31 -26 -17 -26 -49 -299 -179 -150 -34 -24 -14 -12 -19 -23 -18 -23 -11 -6 -24 -23 -26 -21 -18 -32 -32 -42 -4 -35 -36 -53 -21 0 0 0
0 0 -136 -109 -69 -93 -103 -49 -27 -9 -3 -12 -25 -38 -146 -163 -196 -68 -45 -33 -30 -26 -33 -40 -34 -17 -35 -23 -26 -22 -8 -25 -25 -16 -16 -9 -19 -15 -25 -8 -2 -1 0
0 0 0 0 -7 -98 -112 -28 -4 -24 -11 -1 -9 -9 -23 -82 -43 -38 -60 -60 -33 -62 -50 -35 -32 -33 -26 -14 -4 0 0 -11 0 0 -2 -1 -1 -28 -17 -4 -4 -2 -4
0 0 0 0 0 -44 -60 -29 -6 -1 -2 0 0 0 -1 -12 -27 -35 -35 -22 -21 -38 -43 -11 -18 -8 -4 -2 0 0 0 0 0 0 0 -2 -6 -4 0 -7 -16 -10 -17
0 0 0 0 -16 0 -11 -66 -42 -1 -1 0 -1 0 0 -3 -12 -5 -2 -2 -7 -11 0 -2 0 0 -1 -2 0 0 -1 -1 0 0 -1 0 -41 -48 0 0 0 0 0
-98 0 0 0 -13 0 -14 -29 -10 -23 -26 -9 0 0 0 -5 -17 -9 -1 -2 -14 -2 0 0 0 0 -5 0 0 0 0 0 0 -13 -3 -5 -7 -30 0 0 0 0 0
-8 0 0 0 -4 0 -3 -1 0 0 -1 0 0 0 -8 -32 -13 -5 -4 -32 0 0 0 0 0 -2 0 0 -7 0 0 -4 -2 -6 -1 -2 0 0 0 0 0 0 0
0 0 0 0 0 -10 -4 -3 -8 0 -3 -2 -2 0 -4 -1 0 -5 -2 -2 0 0 0 0 0 0 -1 -2 0 0 -4 -15 -9 -13 -29 0 0 0 0 0 0 0 0
-15 -20 -22 -31 -1 -7 -4 -1 0 -5 -1 -8 -5 -2 -5 -17 -17 -2 -5 0 0 -1 0 -1 0 0 -1 0 -2 -18 -27 -32 0 0 0 0 0 0 0 0 0 0 0
-3 -2 -6 -3 -3 -7 -9 -1 -3 0 -1 -1 -6 -15 -36 0 -2 -1 -5 -2 0 -17 -22 -29 -15 -12 -15 -2 -2 0 0 0 0 0 0 0 0 0 0 0 0 0 0
-23 -21 0 0 0 0 -2 -4 -1 -5 0 0 0 0 -4 0 -1 -4 -6 -3 -2 0 -3 0 0 0 0 0 0 0 0 0 0 0 0 0 0 0 0 0 0 0 0
-38 -81 -1 0 0 0 0 0 0 0 0 0 0 0 0 0 0 0 0 0 0 0 0 0 0 0 0 0 0 0 0 0 0 0 0 0 0 0 0 0 0 0 0
-26 -51 -41 -30 -12 -6 0 0 0 0 0 0 0 0 0 0 0 0 0 0 0 0 0 0 0 0 0 0 0 0 0 0 0 0 0 0 0 0 0 0 0 0 0
-23 -31 -15 -2 -23 -24 -17 -8 0 0 0 0 0 0 0 0 0 0 0 0 0 0 0 0 0 0 0 0 0 0 0 0 0 0 0 0 0 0 0 0 0 0 0
-38 -28 -18 -2 0 0 0 -40 0 0 0 0 0 0 0 0 0 0 0 0 0 0 0 0 0 0 0 0 0 0 0 0 0 0 0 0 0 0 0 0 0 0 0
-32 -32 -14 -13 0 0 0 0 0 0 0 0 0 0 0 0 0 0 0 0 0 0 0 0 0 0 0 0 0 0 0 0 0 0 0 0 0 0 0 0 0 0 0
-28 -35 -11 -11 0 0 0 0 0 0 0 0 0 0 0 0 0 0 0 0 0 0 0 0 0 0 0 0 0 0 0 0 0 0 0 0 0 0 0 -4 -4 0 0
Wind_Speed
nan nan nan nan nan nan 15 15 13 14 14 14 12 11 9 8 10 10 8 8 8 9 6 5 5 6 4 5 5 6 6 6 7 7 7 11 14 18 17 18 nan nan nan
15 nan nan nan nan nan 18 17 17 13 15 14 14 13 11 14 13 11 9 9 9 9 9 8 8 8 5 5 7 8 9 7 9 11 10 10 13 17 18 nan nan nan nan
19 20 22 nan 19 18 22 23 19 16 15 17 15 14 16 13 13 12 10 9 11 10 11 11 10 10 8 7 8 8 9 9 9 11 14 12 13 20 19 nan nan nan nan
27 21 18 21 nan nan 23 24 24 23 19 18 18 16 18 17 16 14 12 11 12 13 13 14 12 7 7 9 10 10 11 11 11 13 15 16 16 18 18 18 nan nan nan
27 28 22 22 25 27 23 25 27 25 24 27 22 19 20 20 20 19 15 13 14 14 14 15 13 12 13 13 14 12 14 14 14 15 17 18 19 20 20 22 nan nan nan
24 23 26 30 31 26 24 28 30 28 30 34 31 25 22 22 21 19 19 17 15 15 16 17 17 16 21 22 19 18 16 18 17 18 20 20 21 22 23 23 nan nan nan
22 24 27 28 27 29 29 28 28 33 32 36 32 26 25 24 22 21 20 21 19 18 18 20 20 20 21 23 28 30 30 28 22 21 21 22 25 24 25 26 nan nan nan
26 24 26 25 27 33 30 28 28 31 27 nan 19 23 30 31 28 23 21 23 23 20 22 23 23 24 25 28 28 29 28 26 24 24 24 nan nan nan 28 27 nan nan nan
30 29 28 28 25 31 31 29 29 29 29 26 25 nan nan 25 31 28 31 29 25 21 24 26 26 27 30 31 28 29 30 29 30 32 34 nan nan nan nan nan nan 34 30
30 28 27 29 28 28 32 31 30 28 26 25 23 20 nan 21 29 31 32 37 33 29 29 31 30 30 35 33 30 33 29 29 nan nan nan nan nan nan nan nan nan 30 31
nan nan nan nan 28 28 30 32 31 32 31 27 25 23 nan nan nan 28 34 46 35 31 30 35 33 31 35 34 36 32 35 nan nan nan nan nan nan nan nan nan nan nan nan
nan nan nan nan nan 33 nan 33 33 33 32 30 28 25 25 22 26 30 29 31 34 32 35 39 38 37 38 35 34 39 38 nan nan nan nan nan nan nan nan nan nan nan nan
nan nan nan nan nan 36 36 37 36 37 36 34 30 27 25 23 nan 21 25 22 34 37 40 40 40 43 43 39 41 39 35 nan nan nan nan nan nan nan nan nan nan nan nan
nan nan nan nan nan nan nan nan nan 37 36 36 34 29 29 26 25 26 21 nan nan 30 42 44 42 nan 46 nan 41 nan nan nan nan nan nan nan nan nan nan nan nan nan nan
nan nan nan nan nan nan nan nan nan nan nan 33 34 31 30 29 27 30 29 30 nan nan 50 41 43 nan nan nan nan nan nan nan nan nan nan nan nan nan nan nan nan nan nan
nan nan nan nan nan nan nan nan nan nan nan nan nan nan nan nan nan nan nan nan nan nan nan nan nan nan nan nan nan nan nan nan nan nan nan nan nan nan nan nan nan nan nan
nan nan nan nan nan nan nan nan nan nan nan nan nan nan nan 38 nan nan nan nan nan nan nan nan nan nan nan nan nan nan nan nan nan nan nan nan nan nan nan nan nan nan nan
nan nan nan nan nan nan nan nan nan nan nan nan nan nan 42 nan nan nan nan nan nan nan nan nan nan nan nan nan nan nan nan nan nan nan nan nan nan nan nan nan nan nan nan
nan nan nan nan nan nan nan nan nan nan nan nan nan nan nan nan nan nan nan nan nan nan nan nan nan nan nan nan nan nan nan nan nan nan nan nan nan nan nan nan nan nan nan
nan nan nan nan nan nan nan nan nan nan nan nan nan nan nan nan nan nan nan nan nan nan nan nan nan nan nan nan nan nan nan nan nan nan nan nan nan nan nan nan nan nan nan
nan nan nan nan nan nan nan nan nan nan nan nan nan nan nan nan nan nan nan nan nan nan nan nan nan nan nan nan nan nan nan nan nan nan nan nan nan nan nan nan nan nan nan
nan nan nan nan nan nan nan nan nan nan nan nan nan nan nan nan nan nan nan nan nan nan nan nan nan nan nan nan nan nan nan nan nan nan nan nan nan nan nan nan nan nan nan
nan nan nan nan nan nan nan nan nan nan nan nan nan nan nan nan nan nan nan nan nan nan nan nan nan nan nan nan nan nan nan nan nan nan nan nan nan nan nan nan nan nan nan
nan nan nan nan nan nan nan nan nan nan nan nan nan nan nan nan nan nan nan nan nan nan nan nan nan nan nan nan nan nan nan nan nan nan nan nan nan nan nan nan nan nan nan
nan nan nan nan nan nan nan nan nan nan nan nan nan nan nan nan nan nan nan nan nan nan nan nan nan nan nan nan nan nan nan nan nan nan nan nan nan nan nan nan nan nan nan
nan nan 12 12 nan nan nan nan nan nan nan nan nan nan nan nan nan nan nan nan nan nan nan nan nan nan nan nan nan nan nan nan nan nan nan nan nan nan nan nan nan nan nan
Wind_Direction
nan nan nan nan nan nan 257 254 242 238 243 242 231 220 223 213 243 240 212 209 236 236 250 285 278 262 267 286 304 300 310 314 298 297 299 310 314 312 328 319 nan nan nan
264 nan nan nan nan nan 265 260 255 253 256 253 237 239 235 217 225 240 224 226 236 241 240 270 275 272 273 285 286 294 302 314 300 307 307 316 315 317 325 nan nan nan nan
265 266 261 nan 275 267 265 266 259 247 244 257 251 241 242 230 228 234 237 230 240 234 248 260 262 271 266 266 278 288 291 301 304 298 303 305 302 313 310 nan nan nan nan
275 276 275 279 nan nan 263 270 274 265 251 239 246 244 245 238 245 238 240 241 239 241 245 246 246 252 261 281 284 291 290 291 293 288 291 298 297 297 303 307 nan nan nan
276 277 280 273 275 263 263 261 268 266 268 262 246 238 242 246 243 247 243 240 247 245 247 244 237 245 260 276 279 281 286 287 289 292 291 292 297 300 309 305 nan nan nan
273 276 274 272 273 280 272 269 271 282 264 263 259 248 240 245 252 260 252 243 241 250 251 256 252 249 249 249 261 267 282 288 291 292 292 296 301 298 296 303 nan nan nan
266 258 258 266 272 273 276 276 281 282 250 264 255 261 260 247 244 254 263 250 252 249 255 260 261 259 266 265 262 262 262 263 272 293 294 295 296 303 301 303 nan nan nan
269 265 255 252 259 267 272 278 281 280 286 nan 288 283 263 247 254 249 253 253 254 255 257 261 265 269 270 273 271 270 268 267 269 278 282 nan nan nan 303 303 nan nan nan
259 263 253 249 253 267 275 281 277 277 282 283 292 nan nan 254 240 248 256 253 252 256 258 263 269 268 274 277 273 276 278 277 271 274 280 nan nan nan nan nan nan 293 281
258 256 254 252 257 258 262 270 277 275 274 269 273 282 nan 317 247 249 251 251 254 249 254 256 267 270 281 280 272 283 279 282 nan nan nan nan nan nan nan nan nan 297 287
nan nan nan nan 258 255 257 259 263 271 273 272 272 274 nan nan nan 288 261 242 245 248 254 256 253 268 275 273 280 280 280 nan nan nan nan nan nan nan nan nan nan nan nan
nan nan nan nan nan 255 nan 254 253 256 268 268 266 264 261 271 280 303 310 248 249 253 253 251 257 263 278 276 267 281 276 nan nan nan nan nan nan nan nan nan nan nan nan
nan nan nan nan nan 255 252 253 253 248 246 254 259 260 256 255 nan 294 294 263 251 254 249 255 264 270 264 260 272 277 269 nan nan nan nan nan nan nan nan nan nan nan nan
nan nan nan nan nan nan nan nan nan 248 246 249 253 253 251 251 254 258 269 nan nan 256 267 257 257 nan 263 nan 266 nan nan nan nan nan nan nan nan nan nan nan nan nan nan
nan nan nan nan nan nan nan nan nan nan nan 243 244 249 249 247 250 258 266 268 nan nan 263 260 255 nan nan nan nan nan nan nan nan nan nan nan nan nan nan nan nan nan nan
nan nan nan nan nan nan nan nan nan nan nan nan nan nan nan nan nan nan nan nan nan nan nan nan nan nan nan nan nan nan nan nan nan nan nan nan nan nan nan nan nan nan nan
nan nan nan nan nan nan nan nan nan nan nan nan nan nan nan 248 nan nan nan nan nan nan nan nan nan nan nan nan nan nan nan nan nan nan nan nan nan nan nan nan nan nan nan
nan nan nan nan nan nan nan nan nan nan nan nan nan nan 245 nan nan nan nan nan nan nan nan nan nan nan nan nan nan nan nan nan nan nan nan nan nan nan nan nan nan nan nan
nan nan nan nan nan nan nan nan nan nan nan nan nan nan nan nan nan nan nan nan nan nan nan nan nan nan nan nan nan nan nan nan nan nan nan nan nan nan nan nan nan nan nan
nan nan nan nan nan nan nan nan nan nan nan nan nan nan nan nan nan nan nan nan nan nan nan nan nan nan nan nan nan nan nan nan nan nan nan nan nan nan nan nan nan nan nan
nan nan nan nan nan nan nan nan nan nan nan nan nan nan nan nan nan nan nan nan nan nan nan nan nan nan nan nan nan nan nan nan nan nan nan nan nan nan nan nan nan nan nan
nan nan nan nan nan nan nan nan nan nan nan nan nan nan nan nan nan nan nan nan nan nan nan nan nan nan nan nan nan nan nan nan nan nan nan nan nan nan nan nan nan nan nan
nan nan nan nan nan nan nan nan nan nan nan nan nan nan nan nan nan nan nan nan nan nan nan nan nan nan nan nan nan nan nan nan nan nan nan nan nan nan nan nan nan nan nan
nan nan nan nan nan nan nan nan nan nan nan nan nan nan nan nan nan nan nan nan nan nan nan nan nan nan nan nan nan nan nan nan nan nan nan nan nan nan nan nan nan nan nan
nan nan nan nan nan nan nan nan nan nan nan nan nan nan nan nan nan nan nan nan nan nan nan nan nan nan nan nan nan nan nan nan nan nan nan nan nan nan nan nan nan nan nan
nan nan 274 264 nan nan nan nan nan nan nan nan nan nan nan nan nan nan nan nan nan nan nan nan nan nan nan nan nan nan nan nan nan nan nan nan nan nan nan nan nan nan nan